Tracking 35331 objects as of 15-Sep-2026
HD Live streaming from Space Station
objects crossing your sky now

CONNECTA IOT-10

Track CONNECTA IOT-10 now!
10-day predictions
CONNECTA IOT-10 is classified as:


NORAD ID: 64555
Int'l Code: 2025-135AD
Launch date: June 23, 2025
Source: Turkey (TURK)
Launch site: AIR FORCE WESTERN TEST RANGE (AFWTR)

Uplink (MHz):
Downlink (MHz): 401.520
Beacon (MHz):
Mode: 4k8 GMSK
Call sign: CNT010
Status: Active

Your satellite tracking list
Your tracking list is empty




NASA's NSSDC Master Catalog

Two Line Element Set (TLE):
1 64555U 25135AD  26257.78203251  .00006343  00000-0  28852-3 0  9995
2 64555  97.4762  12.0303 0001632  57.1392 303.0001 15.21073952 68477
Source of the keplerian elements: AFSPC